Showing default

OPS 9316 (IDSCS 6), 2220

Orbit data source: Space-Track

OPS 9316 (IDSCS 6), 2220 is a payload satellite owned by USAF SSD (US) in GEO that was launched on Thu, 16 Jun 1966 UTC via a TITAN IIIC launch vehicle from the Air Force Eastern Test Range (AFETR). Payload-class satellites include a variety of spacecraft equipped with specific instruments for various scientific and technological missions. These include communications satellites like Starlink; space stations such as the ISS; scientific satellites like the Hubble; Earth observation satellites from companies like Planet Labs, Umbra, and HawkEye 360; GPS; miniature CubeSats for education and research; and military/defense satellites.

Loading next visibility...
Identifier
2220, 1966-053G
Orbit
GEO
Country
Flag of USUS
Related business
Manufacturer
Philco-Ford WDL
Mission
Non-operational spacecraft
Bus & Motor
IDCSP, Unknown motor
Mass
45 kg wet, 45 kg dry
Launch date (UTC)
1966-06-16 (60 years ago)
Launch vehicle
TITAN IIIC
Launch site
Air Force Eastern Test Range (AFETR)
Object type
Payload
Rocket body
Debris
Shape & HBR
ICO POLY, 0.5 m
Radar Cross Section
Medium (>0.1 m² and <1 m²)

Expand to show TLE details & history
Last TLE update: 1 week ago

TLE from 1 week ago
0 OPS 9316 (IDSCS 6)
1 02220U 66053G   26243.87662262 -.00000097  00000-0  00000-0 0  9999
2 02220   8.6133  45.3813 0066901 184.2783   1.6623  1.07156889139868
Epoch: 2026-08-31T21:02Z
TLE epoch observation values (Epoch: 2026-08-31T21:02:20.194Z)
Latitude
-0.8745°
Longitude
-64.36993°
Altitude
33,691.308 km
Speed
3.165 km/s
True Right ascension
15h 25m 03s
True Declination
0° 52' 25"
Sunlit
Object was in daylight at epoch
Visualization orbit readout
Latitude
Unknown
Longitude
Unknown
Altitude
Unknown
Speed
Unknown
Apparent Right ascension
Unknown
Apparent Declination
Unknown
Sunlit
N/A
Visualization observer readout
Local Sidereal Time
01:16:40
Azimuth
Unknown
Elevation
Unknown
Doppler factor
Unknown
Orbital elements
Apogee altitude
34,231.509 km
Perigee altitude
33,691.755 km
Semi-major axis
40,339.769 km
Eccentricity
0.00669
Inclination
8.6133°
RAAN
45.3813°
Arg. of periapsis
184.2783°
True anomaly
1.68473°
Mean anomaly
1.6623°
Eccentric anomaly
1.67349°
Mean motion
0.26788 °/min
Orbital period
1,343.88 mins
BSTAR
0
Loading maneuver chart data...
Computing Atmospheric mass density...
Loading historical data...
Loading historical data...
Loading historical data...
Loading historical data...
Loading historical data...
Loading historical data...
Loading historical data...

Documentation

Showing up to 5 results
|